This is the latest recevied weather packets stored in our database for station/object WP3OF-2. If no packets are shown the sender has not sent any weather packets the latest 10 day(s).
| Time | Temp. | Humidity | Pressure | Rain* | Wind** | Luminosity | Snow |
|---|---|---|---|---|---|---|---|
| 1778013686 | 22.22° C | 90% | 1026 hPa | 0 mm | - | 409 W/m² | - |
| 1778013381 | 22.78° C | 90% | 1026 hPa | 0 mm | - | 433 W/m² | - |
| 1778013079 | 22.78° C | 90% | 1026 hPa | 0 mm | - | 441 W/m² | - |
| 1778012769 | 22.78° C | 90% | 1025.6 hPa | 0 mm | - | 447 W/m² | - |
| 1778012465 | 22.78° C | 90% | 1026 hPa | 0 mm | - | 471 W/m² | - |
| 1778012162 | 22.78° C | 89% | 1026 hPa | 0 mm | - | 517 W/m² | - |
| 1778011860 | 22.78° C | 89% | 1026 hPa | 0 mm | - | 501 W/m² | - |
| 1778011557 | 22.78° C | 88% | 1026 hPa | 0 mm | - | 526 W/m² | - |
| 1778011254 | 23.33° C | 89% | 1026 hPa | 0 mm | - | 537 W/m² | - |
| 1778010950 | 23.33° C | 88% | 1026 hPa | 0 mm | - | 551 W/m² | - |
| 1778010648 | 23.33° C | 86% | 1026 hPa | 0 mm | - | 566 W/m² | - |
| 1778010345 | 23.33° C | 87% | 1026.3 hPa | 0 mm | - | 580 W/m² | - |
| 1778010040 | 23.33° C | 88% | 1026 hPa | 0 mm | - | 590 W/m² | - |
| 1778009738 | 23.33° C | 88% | 1026 hPa | 0 mm | - | 604 W/m² | - |
| 1778009435 | 23.33° C | 89% | 1026.3 hPa | 0 mm | - | 635 W/m² | - |
| 1778009133 | 23.33° C | 87% | 1026.3 hPa | 0 mm | - | 634 W/m² | - |
| 1778008831 | 23.33° C | 88% | 1026 hPa | 0 mm | - | 642 W/m² | - |
| 1778008529 | 23.89° C | 88% | 1026.3 hPa | 0 mm | - | 653 W/m² | - |
| 1778008226 | 23.33° C | 86% | 1026.3 hPa | 0 mm | - | 659 W/m² | - |
| 1778007926 | 23.89° C | 86% | 1026.3 hPa | 0 mm | - | 676 W/m² | - |
| 1778007622 | 23.89° C | 87% | 1026.3 hPa | 0 mm | - | 700 W/m² | - |
| 1778007319 | 24.44° C | 86% | 1026.7 hPa | 0 mm | - | 735 W/m² | - |
| 1778007016 | 23.89° C | 87% | 1026.7 hPa | 0 mm | - | 699 W/m² | - |
| 1778006713 | 23.89° C | 87% | 1026.7 hPa | 0 mm | - | 718 W/m² | - |
| 1778006409 | 23.89° C | 86% | 1026.7 hPa | 0 mm | - | 724 W/m² | - |
* Rain latest hour (hover to see other rain measurements)
** Current wind speed in m/s (hover to see current wind gust speed)